Mammoth Lakes, CA

5:46 AM PST on February 06, 2016 (GMT -0800)
Mammoth Yosemite

Weather History for KMMH - January, 2014

Change the Weather History Date:

Thursday, January 23, 2014

  Actual Average (KBIH) Record (KBIH)
Temperature  
Mean Temperature 30 °F 39 °F  
Max Temperature 39 °F 55 °F 75 °F (1953)
Min Temperature 21 °F 24 °F 0 °F (1964)
Degree Days  
Heating Degree Days 35 26  
Month to date heating degree days 616  
Since 1 July heating degree days 2363  
Cooling Degree Days 0 0  
Month to date cooling degree days 0  
Year to date cooling degree days 0  
Moisture  
Dew Point 8 °F    
Average Humidity 36    
Maximum Humidity 51    
Minimum Humidity 26    
Precipitation  
Precipitation 0.00 in 0.02 in 0.60 in (2012)
Month to date precipitation 0.85  
Year to date precipitation 0.85  
Snow  
Snow 0.00 in 0.10 in 4.60 in (2012)
Month to date snowfall 4.4  
Since 1 July snowfall 5.9  
Snow Depth -    
Sea Level Pressure  
Sea Level Pressure 30.17 in    
Wind  
Wind Speed 7 mph (SE)    
Max Wind Speed 18 mph    
Max Gust Speed 22 mph    
Visibility 10 miles    
Events      
T = Trace of Precipitation, MM = Missing Value Source: NWS Daily Summary

Daily Weather History Graph

Daily Weather History Graph

Search for Another Location

Airport or City:

Trip Planner

Search our weather history database for the weather conditions in past years. The results will help you decide how hot, cold, wet, or windy it might be!

Date:

Astronomy

Jan. 23, 2014 Rise Set
Actual Time 7:05 AM PST 5:09 PM PST
Civil Twilight 6:37 AM PST 5:37 PM PST
Nautical Twilight 6:05 AM PST 6:09 PM PST
Astronomical Twilight 5:34 AM PST 6:40 PM PST
Moon No Moon Rise 10:52 AM PST (1/23)
Length of Visible Light 11h 00m
Length of Day
10h 04m
Waning Gibbous, 54% of the Moon is Illuminated
Jan 23
Waning Gibbous
Jan 23
Last Quarter
Jan 30
New
Feb 6
First Quarter
Feb 14
Full

Hourly Weather History & Observations

Time (PST) Temp. Windchill Dew Point Humidity Pressure Visibility Wind Dir Wind Speed Gust Speed Precip Events Conditions
12:15 AM 26.6 °F 21.2 °F 1.4 °F 34% 30.09 in 10.0 mi West 4.6 mph - N/A   Clear
12:35 AM 32.0 °F 23.6 °F 1.4 °F 27% 30.09 in 10.0 mi West 10.4 mph - N/A   Clear
12:55 AM 33.8 °F 23.9 °F 3.2 °F 28% 30.09 in 10.0 mi West 15.0 mph - N/A   Clear
1:15 AM 33.8 °F 23.5 °F 3.2 °F 28% 30.10 in 10.0 mi West 16.1 mph - N/A   Clear
1:35 AM 33.8 °F 23.2 °F 3.2 °F 28% 30.10 in 10.0 mi West 17.3 mph - N/A   Clear
1:55 AM 33.8 °F 23.5 °F 3.2 °F 28% 30.11 in 10.0 mi West 16.1 mph - N/A   Clear
2:15 AM 33.8 °F 24.3 °F 3.2 °F 28% 30.10 in 10.0 mi West 13.8 mph - N/A   Clear
2:35 AM 32.0 °F 23.0 °F 3.2 °F 30% 30.10 in 10.0 mi WNW 11.5 mph - N/A   Clear
2:55 AM 30.2 °F 22.6 °F 3.2 °F 32% 30.10 in 10.0 mi WNW 8.1 mph - N/A   Clear
3:15 AM 28.4 °F 22.2 °F 3.2 °F 34% 30.11 in 10.0 mi West 5.8 mph - N/A   Clear
3:35 AM 28.4 °F 19.7 °F 3.2 °F 34% 30.12 in 10.0 mi West 9.2 mph - N/A   Clear
3:55 AM 30.2 °F 21.3 °F 3.2 °F 32% 30.12 in 10.0 mi WNW 10.4 mph - N/A   Clear
4:15 AM 30.2 °F 20.8 °F 5.0 °F 34% 30.11 in 10.0 mi West 11.5 mph - N/A   Clear
4:35 AM 28.4 °F 20.4 °F 5.0 °F 37% 30.12 in 10.0 mi West 8.1 mph - N/A   Clear
4:55 AM 26.6 °F 17.5 °F 5.0 °F 40% 30.12 in 10.0 mi West 9.2 mph - N/A   Clear
5:15 AM 24.8 °F 16.1 °F 3.2 °F 40% 30.12 in 10.0 mi North 8.1 mph - N/A   Clear
5:35 AM 23.0 °F - 5.0 °F 46% 30.13 in 10.0 mi Calm Calm - N/A   Clear
5:55 AM 23.0 °F - 5.0 °F 46% 30.13 in 10.0 mi Calm Calm - N/A   Clear
6:15 AM 23.0 °F 18.4 °F 5.0 °F 46% 30.14 in 10.0 mi NNW 3.5 mph - N/A   Clear
6:35 AM 21.2 °F - 5.0 °F 50% 30.15 in 10.0 mi Calm Calm - N/A   Clear
6:55 AM 23.0 °F - 5.0 °F 46% 30.15 in 10.0 mi Calm Calm - N/A   Clear
7:15 AM 24.8 °F - 6.8 °F 46% 30.15 in 10.0 mi Calm Calm - N/A   Clear
7:35 AM 26.6 °F - 6.8 °F 43% 30.15 in 10.0 mi Calm Calm - N/A   Scattered Clouds
7:55 AM 28.4 °F - 6.8 °F 40% 30.15 in 10.0 mi Calm Calm - N/A   Clear
8:15 AM 28.4 °F - 6.8 °F 40% 30.16 in 10.0 mi Calm Calm - N/A   Clear
8:35 AM 32.0 °F 23.0 °F 8.6 °F 38% 30.17 in 10.0 mi WNW 11.5 mph - N/A   Scattered Clouds
8:55 AM 33.8 °F 26.4 °F 8.6 °F 35% 30.17 in 10.0 mi WNW 9.2 mph - N/A   Scattered Clouds
9:15 AM 35.6 °F 28.0 °F 8.6 °F 33% 30.18 in 10.0 mi West 10.4 mph - N/A   Scattered Clouds
9:35 AM 37.4 °F 30.8 °F 8.6 °F 30% 30.18 in 10.0 mi West 9.2 mph - N/A   Mostly Cloudy
9:55 AM 35.6 °F 29.9 °F 8.6 °F 33% 30.19 in 10.0 mi NW 6.9 mph - N/A   Overcast
10:15 AM 37.4 °F - 8.6 °F 30% 30.20 in 10.0 mi Calm Calm - N/A   Mostly Cloudy
10:35 AM 35.6 °F - 8.6 °F 33% 30.19 in 10.0 mi Calm Calm - N/A   Overcast
10:55 AM 37.4 °F - 8.6 °F 30% 30.18 in 10.0 mi Calm Calm - N/A   Mostly Cloudy
11:15 AM 37.4 °F - 8.6 °F 30% 30.18 in 10.0 mi Calm Calm - N/A   Mostly Cloudy
11:35 AM 39.2 °F 34.2 °F 8.6 °F 28% 30.17 in 10.0 mi ENE 6.9 mph - N/A   Overcast
11:55 AM 39.2 °F 34.2 °F 6.8 °F 26% 30.16 in 10.0 mi East 6.9 mph - N/A   Overcast
12:15 PM 39.2 °F 34.2 °F 6.8 °F 26% 30.15 in 10.0 mi ESE 6.9 mph - N/A   Overcast
12:35 PM 39.2 °F - 6.8 °F 26% 30.14 in 10.0 mi Calm Calm - N/A   Overcast
12:55 PM 39.2 °F 34.2 °F 6.8 °F 26% 30.13 in 10.0 mi ESE 6.9 mph - N/A   Overcast
1:15 PM 37.4 °F 34.9 °F 6.8 °F 28% 30.13 in 10.0 mi ENE 3.5 mph - N/A   Overcast
1:35 PM 39.2 °F 35.9 °F 6.8 °F 26% 30.12 in 10.0 mi ESE 4.6 mph - N/A   Overcast
1:55 PM 39.2 °F - 6.8 °F 26% 30.12 in 10.0 mi Calm Calm - N/A   Overcast
2:15 PM 39.2 °F - 6.8 °F 26% 30.12 in 10.0 mi Calm Calm - N/A   Overcast
2:35 PM 39.2 °F 35.9 °F 6.8 °F 26% 30.12 in 10.0 mi East 4.6 mph - N/A   Overcast
2:55 PM 39.2 °F 32.0 °F 6.8 °F 26% 30.13 in 10.0 mi ESE 11.5 mph - N/A   Overcast
3:15 PM 39.2 °F 31.2 °F 6.8 °F 26% 30.14 in 10.0 mi ESE 13.8 mph 20.7 mph N/A   Overcast
3:35 PM 37.4 °F 30.3 °F 5.0 °F 26% 30.15 in 10.0 mi ESE 10.4 mph 19.6 mph N/A   Overcast
3:55 PM 37.4 °F 32.8 °F 8.6 °F 30% 30.15 in 10.0 mi ESE 5.8 mph - N/A   Overcast
4:15 PM 37.4 °F 32.1 °F 8.6 °F 30% 30.16 in 10.0 mi East 6.9 mph - N/A   Overcast
4:35 PM 37.4 °F 32.8 °F 8.6 °F 30% 30.17 in 10.0 mi East 5.8 mph - N/A   Overcast
4:55 PM 35.6 °F 31.7 °F 10.4 °F 35% 30.17 in 10.0 mi East 4.6 mph - N/A   Overcast
5:15 PM 35.6 °F 30.7 °F 10.4 °F 35% 30.18 in 10.0 mi East 5.8 mph - N/A   Overcast
5:35 PM 35.6 °F 29.9 °F 10.4 °F 35% 30.19 in 10.0 mi East 6.9 mph - N/A   Overcast
5:55 PM 35.6 °F 28.6 °F 8.6 °F 33% 30.19 in 10.0 mi East 9.2 mph 17.3 mph N/A   Overcast
6:15 PM 35.6 °F 25.2 °F 10.4 °F 35% 30.20 in 10.0 mi ESE 18.4 mph 21.9 mph N/A   Overcast
6:35 PM 35.6 °F 27.1 °F 10.4 °F 35% 30.21 in 10.0 mi East 12.7 mph 20.7 mph N/A   Overcast
6:55 PM 35.6 °F 29.2 °F 14.0 °F 41% 30.22 in 10.0 mi East 8.1 mph 17.3 mph N/A   Overcast
7:15 PM 35.6 °F 28.6 °F 14.0 °F 41% 30.22 in 10.0 mi ESE 9.2 mph 18.4 mph N/A   Overcast
7:55 PM 35.6 °F 28.6 °F 14.0 °F 41% 30.23 in 10.0 mi South 9.2 mph - N/A   Overcast
8:15 PM 35.6 °F 32.8 °F 14.0 °F 41% 30.24 in 10.0 mi East 3.5 mph - N/A   Overcast
8:35 PM 35.6 °F 31.7 °F 15.8 °F 44% 30.24 in 10.0 mi East 4.6 mph - N/A   Overcast
8:55 PM 33.8 °F 30.8 °F 15.8 °F 48% 30.26 in 10.0 mi SSE 3.5 mph - N/A   Overcast
9:15 PM 33.8 °F 25.3 °F 14.0 °F 44% 30.27 in 10.0 mi ESE 11.5 mph 17.3 mph N/A   Overcast
9:35 PM 33.8 °F 26.4 °F 14.0 °F 44% 30.28 in 10.0 mi SE 9.2 mph - N/A   Overcast
9:55 PM 33.8 °F 30.8 °F 14.0 °F 44% 30.29 in 10.0 mi South 3.5 mph - N/A   Overcast
10:15 PM 33.8 °F - 14.0 °F 44% 30.29 in 10.0 mi Calm Calm - N/A   Overcast
10:35 PM 33.8 °F - 14.0 °F 44% 30.30 in 10.0 mi Calm Calm - N/A   Overcast
10:55 PM 32.0 °F 27.5 °F 14.0 °F 48% 30.31 in 10.0 mi NW 4.6 mph - N/A   Overcast
11:15 PM 32.0 °F 27.5 °F 14.0 °F 48% 30.31 in 10.0 mi West 4.6 mph - N/A   Overcast
11:35 PM 30.2 °F 25.4 °F 14.0 °F 51% 30.31 in 10.0 mi WSW 4.6 mph - N/A   Mostly Cloudy
11:55 PM 30.2 °F 24.3 °F 14.0 °F 51% 30.31 in 10.0 mi West 5.8 mph - N/A   Mostly Cloudy